Regional Weather Roundup
Issued by NWS Portland, ME

Current Version | Previous Version | Text Only | Print | Product List | Glossary Off
Versions: 1 2 3 4 5 6 7 8 9 10 11 12 13 14 15 16 17 18 19 20 21 22 23 24 25 26 27 28 29 30 31 32 33 34 35 36 37 38 39 40 41 42 43 44 45 46 47 48 49 50
000 ASUS41 KGYX 210010 RWRGYX WEATHER ROUNDUP FOR MAINE AND NEW HAMPSHIRE NATIONAL WEATHER SERVICE GRAY ME 800 PM EDT MON MAY 20 2019 MEZ002-005-006-010-012-015-018-020-021-024-026-027-029-210100- MAINE CITY SKY/WX TMP DP RH WIND PRES REMARKS PORTLAND FAIR 69 61 75 S5 29.62R 6HR MIN TEMP: 68; 6HR MAX TEMP: 75; 6HR PCP: 0.11; SANFORD LGT RAIN 69 64 84 S6 29.63R BAR HARBOR CLOUDY 53 52 96 CALM 29.63R FOG WISCASSET FAIR 62 60 93 S3 29.62R 6HR MIN TEMP: 61; 6HR MAX TEMP: 72; 6HR PCP: 0.21; ROCKLAND CLOUDY 57 57 100 W5 29.61R FOG FRYEBURG FAIR 68 61 78 SW5 29.62R 6HR MIN TEMP: 66; 6HR MAX TEMP: 82; 6HR PCP: 0.04; LEWISTONAUBURN FAIR 68 62 81 CALM 29.62R AUGUSTA CLOUDY 69 63 81 CALM 29.61S 6HR MIN TEMP: 62; 6HR MAX TEMP: 75; WATERVILLE FAIR 66 62 87 CALM 29.58S BANGOR LGT RAIN 62 61 96 SE7 29.60F 6HR MIN TEMP: 57; 6HR MAX TEMP: 70; 6HR PCP: 0.48; GREENVILLE N/A 60 59 96 VRB3 29.61R 6HR MIN TEMP: 60; 6HR MAX TEMP: 67; 6HR PCP: 0.42; MILLINOCKET CLOUDY 60 58 92 CALM 29.62S 6HR MIN TEMP: 59; 6HR MAX TEMP: 61; HOULTON CLOUDY 53 51 93 SE7 29.62S 6HR MIN TEMP: 53; 6HR MAX TEMP: 56; 6HR PCP: 0.32; PRESQUE ISLE LGT RAIN 53 51 93 E8 29.63F 6HR MIN TEMP: 52; 6HR MAX TEMP: 55; 6HR PCP: 0.53; FRENCHVILLE LGT RAIN 51 48 89 E12 29.60F VSB 1 6HR MIN TEMP: 50; 6HR MAX TEMP: 52; 6HR PCP: 0.09; CARIBOU LGT RAIN 52 50 93 E12 29.61F 6HR MIN TEMP: 52; 6HR MAX TEMP: 55; 6HR PCP: 0.29; $$ NHZ002-005-008-009-011-012-014-210100- NEW HAMPSHIRE CITY SKY/WX TMP DP RH WIND PRES REMARKS PORTSMOUTH MOCLDY 73 61 65 NW3 29.62R ROCHESTER LGT RAIN 69 63 81 VRB3 29.63R 6HR MIN TEMP: 69; 6HR MAX TEMP: 83; 6HR PCP: TRACE; NASHUA MOCLDY 74 62 66 CALM 29.63S MANCHESTER MOCLDY 80 58 46 CALM 29.62R 6HR MIN TEMP: 75; 6HR MAX TEMP: 83; 6HR PCP: TRACE; CONCORD MOCLDY 68 66 93 CALM 29.63F 6HR MIN TEMP: 67; 6HR MAX TEMP: 84; 6HR PCP: 0.03; LACONIA FAIR 71 62 73 SW5 29.64S PLYMOUTH LGT RAIN 67 64 89 CALM 29.63S BERLIN CLOUDY 70 50 49 VRB6G18 29.64R 6HR MIN TEMP: 67; 6HR MAX TEMP: 79; 6HR PCP: 0.03; WHITEFIELD HAZE 65 60 84 CALM 29.66R VSB 1/4 6HR MIN TEMP: 65; 6HR MAX TEMP: 77; 6HR PCP: 0.12; JAFFREY FAIR 71 59 65 CALM 29.67S 6HR MIN TEMP: 70; 6HR MAX TEMP: 80; 6HR PCP: 0.03; KEENE LGT RAIN 73 61 65 NW7G24 29.65S LEBANON FAIR 68 64 87 CALM 29.65R 6HR MIN TEMP: 66; 6HR MAX TEMP: 79; 6HR PCP: 0.39; MT WASHINGTON NOT AVBL $$ VTZ005-007-008-210100- VERMONT CITY SKY/WX TMP DP RH WIND PRES REMARKS ST JOHNSBURY N/A 69 52 54 MISG 29.64R MONTPELIER MOCLDY 64 52 64 N7 29.72R BURLINGTON MOCLDY 67 45 45 S6 29.70R $$ MAZ007-012-024-CTZ003-RIZ002-NYZ038-NYZ072-210100- SOUTHERN NEW ENGLAND AND NY CITY SKY/WX TMP DP RH WIND PRES REMARKS BOSTON MOCLDY 74 66 76 SW13G18 29.65S WORCESTER FAIR 69 66 90 SW12 29.69R NANTUCKET FOG 56 55 97 SW12 29.75R VSB 1/4 PROVIDENCE LGT RAIN 71 67 87 S6 29.70S HARTFORD MOCLDY 75 63 66 SW13G29 29.66R ALBANY MOCLDY 68 50 52 NW18G31 29.74R NEW YORK CITY FAIR 84 58 40 W20G26 29.70R $$ ANZ081-ANZ082-ANZ150-NHZ014-MEZ023>029-210100- COASTAL MARINE OBSERVATIONS STATION/POSITION TIME TEMP WIND PRES WAVE AIR SEA DIR/SP/G HT/PER (UTC) (F) (DEG/KT/KT) (MB) (FT/S) ISLE OF SHOALS 2300 76 250/ 14/ 15 1001.8F JEFFREYS LEDGE 2338 50 N/A 3/ 6 GEORGES BANK BUO 2350 53 45 210/ 16/ 19 1010.0F 5/ 6 $$ .............KEY.............. WCI - WIND CHILL TC - TEMPERATURE IN CELSIUS VSB - VISIBILITY IN MILES HX - HEAT INDEX FAIR- INDICATES FEW OR NO CLOUDS BELOW 12,000 FT, WITH NO SIGNIFICANT WEATHER AND/OR OBSTRUCTIONS TO VISIBILITY.

USA.gov is the U.S. government's official web portal to all federal, state and local government web resources and services.